DW6201 Weather Reports


Display with metric or nautical units.
time (UTC)temp
F
wind
direction
speed
MPH
gust
MPH
rain 1hr
in
rain 24hr
in
rain mn
in
humidity
%
barometer
mb
20260906181001 76 0 0.0 0.0 0.00 0.00 0.00 81 1019.6
20260906180501 76 0 0.0 0.0 0.00 0.00 0.00 81 1019.6
20260906180001 76 0 0.0 0.0 0.00 0.00 0.00 80 1019.6
20260906175500 76 0 0.0 0.0 0.00 0.00 0.00 80 1020.0
20260906175000 76 0 0.0 0.0 0.00 0.00 0.00 81 1020.0
20260906174500 76 211 1.0 1.0 0.00 0.00 0.00 80 1020.3
20260906174001 76 0 0.0 0.0 0.00 0.00 0.00 80 1020.3
20260906173501 76 198 1.0 1.0 0.00 0.00 0.00 81 1020.3
20260906173000 76 0 0.0 0.0 0.00 0.00 0.00 81 1020.3
20260906172501 76 0 0.0 0.0 0.00 0.00 0.00 81 1020.3
20260906172001 76 0 0.0 0.0 0.00 0.00 0.00 81 1020.3
20260906171501 76 0 0.0 0.0 0.00 0.00 0.00 81 1020.7
20260906171000 76 0 0.0 0.0 0.00 0.00 0.00 82 1020.7
20260906170500 75 0 0.0 0.0 0.00 0.00 0.00 82 1020.7
20260906170000 75 0 0.0 0.0 0.00 0.00 0.00 82 1020.7
20260906165501 74 0 0.0 0.0 0.00 0.00 0.00 82 1020.7
20260906165000 74 0 0.0 0.0 0.00 0.00 0.00 83 1020.7
20260906164501 74 0 0.0 0.0 0.00 0.00 0.00 83 1020.7
20260906164001 73 0 0.0 0.0 0.00 0.00 0.00 83 1020.7
20260906163500 73 0 0.0 0.0 0.00 0.00 0.00 83 1020.7
20260906163001 72 0 0.0 0.0 0.00 0.00 0.00 83 1020.7
20260906162501 72 0 0.0 0.0 0.00 0.00 0.00 83 1020.7
20260906162000 72 0 0.0 0.0 0.00 0.00 0.00 83 1020.7
20260906161500 72 0 0.0 0.0 0.00 0.00 0.00 83 1020.7
20260906161000 71 0 0.0 0.0 0.00 0.00 0.00 83 1020.7
20260906160500 71 291 1.0 1.0 0.00 0.00 0.00 83 1020.7
20260906160001 71 0 0.0 0.0 0.00 0.00 0.00 83 1020.7
20260906155500 71 0 0.0 0.0 0.00 0.00 0.00 83 1020.7
20260906155001 71 0 0.0 0.0 0.00 0.00 0.00 83 1020.7
20260906154501 71 0 0.0 0.0 0.00 0.00 0.00 83 1020.7
20260906154001 71 87 1.0 1.0 0.00 0.00 0.00 83 1020.7
20260906153501 71 0 0.0 0.0 0.00 0.00 0.00 83 1021.0
20260906153000 71 0 0.0 0.0 0.00 0.00 0.00 83 1021.0
20260906152501 71 0 0.0 0.0 0.00 0.00 0.00 83 1021.0
20260906152001 71 0 0.0 0.0 0.00 0.00 0.00 83 1021.0
20260906151500 71 71 2.0 2.0 0.00 0.00 0.00 82 1021.0
20260906151001 71 0 0.0 0.0 0.00 0.00 0.00 82 1021.0
20260906150501 71 0 0.0 0.0 0.00 0.00 0.00 82 1020.7
20260906150000 71 236 1.0 1.0 0.00 0.00 0.00 82 1020.7
20260906145500 71 0 0.0 0.0 0.00 0.00 0.00 82 1020.7
20260906145000 71 0 0.0 0.0 0.00 0.00 0.00 82 1020.7
20260906144501 70 226 3.0 3.0 0.00 0.00 0.00 82 1020.7
20260906144001 70 0 0.0 0.0 0.00 0.00 0.00 81 1020.7
20260906143501 70 0 0.0 0.0 0.00 0.00 0.00 81 1020.7
20260906143000 70 0 0.0 0.0 0.00 0.00 0.00 81 1020.7
20260906142501 70 0 0.0 0.0 0.00 0.00 0.00 81 1020.7
20260906142001 70 0 0.0 0.0 0.00 0.00 0.00 81 1020.7
20260906141500 70 0 0.0 0.0 0.00 0.00 0.00 81 1020.7
20260906141000 70 0 0.0 0.0 0.00 0.00 0.00 81 1020.7
20260906140501 69 0 0.0 0.0 0.00 0.00 0.00 80 1020.7
20260906140001 69 0 0.0 0.0 0.00 0.00 0.00 80 1020.7
20260906135500 69 0 0.0 0.0 0.00 0.00 0.00 80 1020.7
20260906135001 69 0 0.0 0.0 0.00 0.00 0.00 80 1020.7
20260906134501 69 0 0.0 0.0 0.00 0.00 0.00 80 1020.3
20260906134001 69 0 0.0 0.0 0.00 0.00 0.00 80 1020.3
20260906133501 69 0 0.0 0.0 0.00 0.00 0.00 80 1020.3
20260906133001 68 0 0.0 0.0 0.00 0.00 0.00 80 1020.7
20260906132501 68 194 1.0 1.0 0.00 0.00 0.00 80 1020.7
20260906132001 68 0 0.0 0.0 0.00 0.00 0.00 80 1020.3
20260906131501 68 0 0.0 0.0 0.00 0.00 0.00 81 1020.3
20260906131001 68 0 0.0 0.0 0.00 0.00 0.00 81 1020.3
20260906130501 68 0 0.0 0.0 0.00 0.00 0.00 80 1020.3
20260906130001 68 0 0.0 0.0 0.00 0.00 0.00 80 1020.0
20260906125501 67 0 0.0 0.0 0.00 0.00 0.00 81 1020.0
20260906125001 67 0 0.0 0.0 0.00 0.00 0.00 81 1020.0
20260906124501 67 0 0.0 0.0 0.00 0.00 0.00 81 1020.0
20260906124000 67 0 0.0 0.0 0.00 0.00 0.00 81 1020.0
20260906123500 67 92 1.0 1.0 0.00 0.00 0.00 81 1020.0
20260906123000 67 0 0.0 0.0 0.00 0.00 0.00 81 1020.0
20260906122501 67 0 0.0 0.0 0.00 0.00 0.00 81 1020.0
20260906122001 67 0 0.0 0.0 0.00 0.00 0.00 81 1019.6
20260906121500 67 0 0.0 0.0 0.00 0.00 0.00 81 1019.6
20260906121000 67 0 0.0 0.0 0.00 0.00 0.00 81 1019.6
20260906120501 67 0 0.0 0.0 0.00 0.00 0.00 81 1020.0
20260906120001 67 0 0.0 0.0 0.00 0.00 0.00 81 1019.6
20260906115500 67 0 0.0 0.0 0.00 0.00 0.00 81 1019.6
20260906115000 67 0 0.0 0.0 0.00 0.00 0.00 82 1019.6
20260906114501 66 0 0.0 0.0 0.00 0.00 0.00 82 1019.6
20260906114001 66 0 0.0 0.0 0.00 0.00 0.00 82 1019.6
20260906113501 67 0 0.0 0.0 0.00 0.00 0.00 82 1019.6
20260906113000 67 0 0.0 0.0 0.00 0.00 0.00 82 1019.6
20260906112500 67 0 0.0 0.0 0.00 0.00 0.00 82 1019.6
20260906112001 67 0 0.0 0.0 0.00 0.00 0.00 82 1019.6
20260906111500 67 0 0.0 0.0 0.00 0.00 0.00 82 1019.6
20260906111000 67 0 0.0 0.0 0.00 0.00 0.00 82 1019.3
20260906110500 67 0 0.0 0.0 0.00 0.00 0.00 82 1019.3
20260906110001 67 0 0.0 0.0 0.00 0.00 0.00 82 1019.3
20260906105500 67 0 0.0 0.0 0.00 0.00 0.00 82 1019.3
20260906105000 67 0 0.0 0.0 0.00 0.00 0.00 82 1019.6
20260906104500 67 0 0.0 0.0 0.00 0.00 0.00 82 1019.6
20260906104001 67 0 0.0 0.0 0.00 0.00 0.00 82 1019.6
20260906103501 68 0 0.0 0.0 0.00 0.00 0.00 82 1019.3
20260906103001 68 0 0.0 0.0 0.00 0.00 0.00 82 1019.3
20260906102501 68 0 0.0 0.0 0.00 0.00 0.00 82 1019.3
20260906102001 68 0 0.0 0.0 0.00 0.00 0.00 82 1019.3
20260906101500 68 0 0.0 0.0 0.00 0.00 0.00 82 1019.3
20260906101001 68 0 0.0 0.0 0.00 0.00 0.00 82 1019.3
20260906100500 68 0 0.0 0.0 0.00 0.00 0.00 82 1019.0
20260906100000 68 0 0.0 0.0 0.00 0.00 0.00 82 1019.0
20260906095501 68 0 0.0 0.0 0.00 0.00 0.00 82 1019.0
20260906095000 68 0 0.0 0.0 0.00 0.00 0.00 82 1019.0
20260906094500 68 0 0.0 0.0 0.00 0.00 0.00 82 1019.0
20260906094001 68 0 0.0 0.0 0.00 0.00 0.00 82 1019.0
20260906093501 68 0 0.0 0.0 0.00 0.00 0.00 82 1018.6
20260906093000 68 0 0.0 0.0 0.00 0.00 0.00 82 1018.6
20260906092500 68 0 0.0 0.0 0.00 0.00 0.00 82 1018.6
20260906092000 68 0 0.0 0.0 0.00 0.00 0.00 82 1018.6
20260906091500 69 0 0.0 0.0 0.00 0.00 0.00 82 1018.3
20260906091001 69 0 0.0 0.0 0.00 0.00 0.00 82 1018.3
20260906090501 69 0 0.0 0.0 0.00 0.00 0.00 82 1018.3
20260906090001 69 0 0.0 0.0 0.00 0.00 0.00 83 1018.3
20260906085501 69 0 0.0 0.0 0.00 0.00 0.00 83 1018.3
20260906085000 69 0 0.0 0.0 0.00 0.00 0.00 83 1018.3
20260906084501 69 0 0.0 0.0 0.00 0.00 0.00 83 1018.3
20260906084000 69 0 0.0 0.0 0.00 0.00 0.00 83 1018.3
20260906083500 69 0 0.0 0.0 0.00 0.00 0.00 83 1018.3
20260906083000 70 0 0.0 0.0 0.00 0.00 0.00 83 1018.6
20260906082501 70 0 0.0 0.0 0.00 0.00 0.00 83 1018.3
20260906082001 70 0 0.0 0.0 0.00 0.00 0.00 83 1018.3
20260906081500 70 0 0.0 0.0 0.00 0.00 0.00 83 1018.3
20260906081000 70 0 0.0 0.0 0.00 0.00 0.00 83 1018.3
20260906080500 70 0 0.0 0.0 0.00 0.00 0.00 83 1018.3
20260906080001 70 0 0.0 0.0 0.00 0.00 0.00 83 1018.3
20260906075500 70 0 0.0 0.0 0.00 0.00 0.00 83 1018.3
20260906075001 70 0 0.0 0.0 0.00 0.00 0.00 83 1018.3
20260906074500 70 0 0.0 0.0 0.00 0.00 0.00 83 1018.3
20260906074000 70 0 0.0 0.0 0.00 0.00 0.00 83 1018.6
20260906073501 70 0 0.0 0.0 0.00 0.00 0.00 83 1018.6
20260906073001 70 0 0.0 0.0 0.00 0.00 0.00 83 1018.6
20260906072500 70 0 0.0 0.0 0.00 0.00 0.00 83 1018.6
20260906072001 70 0 0.0 0.0 0.00 0.00 0.00 83 1018.6
20260906071500 70 0 0.0 0.0 0.00 0.00 0.00 83 1018.6
20260906071000 71 0 0.0 0.0 0.00 0.00 0.00 83 1018.6
20260906070500 71 0 0.0 0.0 0.00 0.00 0.00 83 1018.6
20260906070001 71 0 0.0 0.0 0.00 0.00 0.00 83 1018.6
20260906065501 71 0 0.0 0.0 0.00 0.00 0.00 83 1018.6
20260906065001 71 0 0.0 0.0 0.00 0.00 0.00 83 1019.0
20260906064500 71 0 0.0 0.0 0.00 0.00 0.00 83 1019.0
20260906064001 71 0 0.0 0.0 0.00 0.00 0.00 83 1019.0
20260906063500 71 0 0.0 0.0 0.00 0.00 0.00 83 1019.0
20260906063001 71 0 0.0 0.0 0.00 0.00 0.00 83 1019.0
20260906062501 71 0 0.0 0.0 0.00 0.00 0.00 83 1019.0
20260906062000 72 0 0.0 0.0 0.00 0.00 0.00 83 1019.0
20260906061500 72 0 0.0 0.0 0.00 0.00 0.00 83 1019.0
20260906061000 72 0 0.0 0.0 0.00 0.00 0.00 83 1019.0
20260906060501 72 0 0.0 0.0 0.00 0.00 0.00 83 1019.0
20260906060000 72 0 0.0 0.0 0.00 0.00 0.00 83 1019.0
20260906055500 72 0 0.0 0.0 0.00 0.00 0.00 83 1019.0
20260906055001 72 0 0.0 0.0 0.00 0.00 0.00 83 1019.0
20260906054500 72 0 0.0 0.0 0.00 0.00 0.00 83 1019.0
20260906054001 72 0 0.0 0.0 0.00 0.00 0.00 83 1019.0
20260906053501 72 0 0.0 0.0 0.00 0.00 0.00 83 1019.0
20260906053001 72 0 0.0 0.0 0.00 0.00 0.00 83 1019.0
20260906052500 72 0 0.0 0.0 0.00 0.00 0.00 83 1019.0
20260906052001 72 0 0.0 0.0 0.00 0.00 0.00 83 1019.3
20260906051500 72 0 0.0 0.0 0.00 0.00 0.00 83 1019.3
20260906051001 72 0 0.0 0.0 0.00 0.00 0.00 83 1019.0
20260906050500 72 0 0.0 0.0 0.00 0.00 0.00 83 1019.0
20260906050000 72 0 0.0 0.0 0.00 0.10 0.00 83 1019.3
20260906045501 72 0 0.0 0.0 0.00 0.10 0.00 83 1019.3
20260906045000 72 0 0.0 0.0 0.00 0.10 0.00 83 1019.3
20260906044501 72 0 0.0 0.0 0.00 0.10 0.00 83 1019.3
20260906044000 72 0 0.0 0.0 0.00 0.10 0.00 83 1019.3
20260906043501 72 0 0.0 0.0 0.00 0.10 0.00 83 1019.3
20260906043001 72 0 0.0 0.0 0.00 0.10 0.00 83 1019.3
20260906042501 72 0 0.0 0.0 0.00 0.10 0.00 83 1019.3
20260906042001 72 0 0.0 0.0 0.00 0.10 0.00 83 1019.3
20260906041500 72 0 0.0 0.0 0.00 0.10 0.00 83 1019.3
20260906041001 72 0 0.0 0.0 0.00 0.10 0.00 83 1019.0
20260906040501 72 0 0.0 0.0 0.00 0.10 0.00 83 1019.0
20260906040000 72 0 0.0 0.0 0.00 0.10 0.00 83 1019.0
20260906035501 72 0 0.0 0.0 0.00 0.10 0.00 83 1019.0
20260906035001 72 0 0.0 0.0 0.00 0.10 0.00 83 1019.0
20260906034501 72 0 0.0 0.0 0.00 0.10 0.00 83 1019.0
20260906034001 72 0 0.0 0.0 0.00 0.10 0.00 83 1019.0
20260906033500 73 0 0.0 0.0 0.00 0.10 0.00 83 1019.0
20260906033001 73 0 0.0 0.0 0.00 0.10 0.00 83 1019.0
20260906032500 73 0 0.0 0.0 0.00 0.10 0.00 83 1019.3
20260906032001 73 0 0.0 0.0 0.00 0.10 0.00 83 1019.3
20260906031501 73 0 0.0 0.0 0.00 0.10 0.00 83 1019.3
20260906031001 73 0 0.0 0.0 0.00 0.10 0.00 83 1019.3
20260906030501 73 0 0.0 0.0 0.00 0.10 0.00 83 1019.3
20260906030001 73 0 0.0 0.0 0.00 0.10 0.00 83 1019.3
20260906025500 73 0 0.0 0.0 0.00 0.10 0.00 83 1019.3
20260906025001 73 0 0.0 0.0 0.00 0.10 0.00 83 1019.0
20260906024500 74 0 0.0 0.0 0.00 0.10 0.00 83 1019.0
20260906024001 74 0 0.0 0.0 0.00 0.10 0.00 82 1019.0
20260906023500 74 0 0.0 0.0 0.00 0.10 0.00 83 1019.0
20260906023001 74 0 0.0 0.0 0.00 0.10 0.00 83 1019.0
20260906022500 74 0 0.0 0.0 0.00 0.10 0.00 82 1018.6
20260906022001 74 0 0.0 0.0 0.00 0.10 0.00 82 1018.6
20260906021501 74 0 0.0 0.0 0.00 0.10 0.00 82 1018.6
20260906021001 74 0 0.0 0.0 0.00 0.10 0.00 82 1018.3
20260906020500 75 0 0.0 0.0 0.00 0.10 0.00 82 1018.3
20260906020001 75 0 0.0 0.0 0.00 0.10 0.00 82 1018.3
20260906015500 75 0 0.0 0.0 0.00 0.10 0.00 82 1018.3
20260906015001 75 0 0.0 0.0 0.00 0.10 0.00 82 1017.9
20260906014501 75 0 0.0 0.0 0.00 0.10 0.00 82 1017.9
20260906014001 75 0 0.0 0.0 0.00 0.10 0.00 82 1017.9
20260906013501 76 0 0.0 0.0 0.00 0.10 0.00 82 1017.6
20260906013000 76 0 0.0 0.0 0.00 0.10 0.00 82 1017.6
20260906012501 76 0 0.0 0.0 0.00 0.10 0.00 81 1017.6
20260906012000 76 0 0.0 0.0 0.00 0.10 0.00 81 1017.6
20260906011501 76 0 0.0 0.0 0.00 0.10 0.00 81 1017.6
20260906011000 76 0 0.0 0.0 0.00 0.10 0.00 81 1017.6
20260906010501 76 0 0.0 0.0 0.00 0.10 0.00 81 1017.6
20260906010001 76 0 0.0 0.0 0.00 0.10 0.00 81 1017.6
20260906005501 77 0 0.0 0.0 0.00 0.10 0.00 81 1017.6
20260906005000 77 0 0.0 0.0 0.00 0.10 0.00 80 1017.6
20260906004501 77 0 0.0 0.0 0.00 0.10 0.00 80 1017.6
20260906004001 77 0 0.0 0.0 0.00 0.10 0.00 80 1017.6
20260906003501 77 0 0.0 0.0 0.00 0.10 0.00 80 1017.6
20260906003001 77 0 0.0 0.0 0.00 0.10 0.00 80 1017.6
20260906002501 77 0 0.0 0.0 0.00 0.10 0.00 80 1017.3
20260906002001 78 0 0.0 0.0 0.00 0.10 0.00 79 1017.3
20260906001500 78 0 0.0 0.0 0.00 0.10 0.00 79 1017.3
20260906001001 78 0 0.0 0.0 0.00 0.10 0.00 79 1017.3
20260906000500 78 0 0.0 0.0 0.00 0.10 0.00 79 1017.3
20260906000001 78 0 0.0 0.0 0.00 0.10 0.00 79 1017.3
20260905235501 78 0 0.0 0.0 0.00 0.10 0.00 79 1017.3
20260905235001 78 61 1.0 1.0 0.00 0.10 0.00 79 1017.3
20260905234500 79 0 0.0 0.0 0.00 0.10 0.00 79 1017.3
20260905234001 79 0 0.0 0.0 0.00 0.10 0.00 79 1017.3
20260905233001 79 0 0.0 0.0 0.00 0.10 0.00 78 1017.3
20260905232500 79 0 0.0 0.0 0.00 0.10 0.00 78 1016.9
20260905232001 79 0 0.0 0.0 0.00 0.10 0.00 78 1017.3
20260905231501 79 0 0.0 0.0 0.00 0.10 0.00 78 1016.9
20260905231000 79 0 0.0 0.0 0.00 0.10 0.00 77 1016.9
20260905230501 80 327 2.0 2.0 0.00 0.10 0.00 77 1016.6
20260905230001 80 67 3.0 3.0 0.00 0.10 0.00 77 1016.6
20260905225501 80 0 0.0 0.0 0.00 0.10 0.00 77 1016.6
20260905225001 80 0 0.0 0.0 0.00 0.10 0.00 77 1016.6
20260905224501 80 67 3.0 3.0 0.00 0.10 0.00 77 1016.6
20260905224001 80 0 0.0 0.0 0.00 0.10 0.00 77 1016.9
20260905223501 80 98 7.0 7.0 0.00 0.10 0.00 77 1016.9
20260905223001 80 0 0.0 0.0 0.00 0.10 0.00 78 1016.6
20260905222501 80 0 0.0 0.0 0.00 0.10 0.00 78 1016.6
20260905222001 80 108 1.0 1.0 0.00 0.10 0.00 78 1016.6
20260905221501 80 79 3.0 3.0 0.00 0.10 0.00 78 1016.6
20260905221001 80 0 0.0 0.0 0.00 0.10 0.00 78 1016.3
20260905220501 80 303 1.0 1.0 0.00 0.10 0.00 78 1016.3
20260905220001 80 0 0.0 0.0 0.00 0.10 0.00 79 1016.3
20260905215501 80 0 0.0 0.0 0.00 0.10 0.00 79 1016.3
20260905215001 80 0 0.0 0.0 0.00 0.10 0.00 78 1016.3
20260905214500 80 0 0.0 0.0 0.00 0.10 0.00 79 1016.6
20260905214001 80 0 0.0 0.0 0.00 0.10 0.00 78 1016.6
20260905213500 80 0 0.0 0.0 0.00 0.10 0.00 79 1016.6
20260905213001 79 0 0.0 0.0 0.00 0.10 0.00 79 1016.6
20260905212501 79 0 0.0 0.0 0.00 0.10 0.00 78 1016.3
20260905212001 79 0 0.0 0.0 0.00 0.10 0.00 79 1016.6
20260905211500 79 0 0.0 0.0 0.00 0.10 0.00 79 1016.6
20260905211001 79 0 0.0 0.0 0.00 0.10 0.00 79 1016.6
20260905210501 79 0 0.0 0.0 0.00 0.10 0.00 79 1016.6
20260905210001 79 0 0.0 0.0 0.00 0.10 0.00 79 1016.6
20260905205500 79 0 0.0 0.0 0.00 0.10 0.00 79 1016.6
20260905205001 79 0 0.0 0.0 0.00 0.10 0.00 79 1016.6
20260905204500 79 0 0.0 0.0 0.00 0.10 0.00 80 1016.9
20260905204001 79 0 0.0 0.0 0.00 0.10 0.00 80 1016.6
20260905203501 79 0 0.0 0.0 0.00 0.10 0.00 80 1016.6
20260905203000 79 0 0.0 0.0 0.00 0.10 0.00 79 1016.9
20260905202501 79 0 0.0 0.0 0.00 0.10 0.00 79 1016.9
20260905202001 79 0 0.0 0.0 0.00 0.10 0.00 79 1016.9
20260905201501 79 0 0.0 0.0 0.00 0.10 0.00 79 1017.3
20260905201001 79 0 0.0 0.0 0.00 0.10 0.00 79 1017.3
20260905200500 79 0 0.0 0.0 0.00 0.10 0.00 79 1017.3
20260905200001 79 0 0.0 0.0 0.00 0.10 0.00 79 1017.3
20260905195501 79 0 0.0 0.0 0.00 0.10 0.00 79 1017.3
20260905195000 79 0 0.0 0.0 0.00 0.10 0.00 79 1017.6
20260905194501 79 0 0.0 0.0 0.00 0.10 0.00 79 1017.6
20260905194001 80 81 6.0 6.0 0.00 0.10 0.00 80 1017.6
20260905193501 80 40 1.0 1.0 0.00 0.10 0.00 80 1017.3
20260905193000 80 0 0.0 0.0 0.00 0.10 0.00 79 1017.3
20260905192500 80 0 0.0 0.0 0.00 0.10 0.00 79 1017.3
20260905192001 80 0 0.0 0.0 0.00 0.10 0.00 79 1017.6
20260905191501 80 0 0.0 0.0 0.00 0.10 0.00 79 1017.6
20260905191000 80 0 0.0 0.0 0.00 0.10 0.00 79 1017.9
20260905190500 81 0 0.0 0.0 0.00 0.10 0.00 78 1017.9
20260905190000 81 0 0.0 0.0 0.00 0.10 0.00 79 1017.9
20260905185501 81 0 0.0 0.0 0.00 0.10 0.00 80 1017.9
20260905185000 80 0 0.0 0.0 0.00 0.10 0.00 80 1017.9
20260905184500 80 0 0.0 0.0 0.00 0.10 0.00 81 1017.9
20260905184000 80 0 0.0 0.0 0.00 0.10 0.00 81 1017.9
20260905183501 80 0 0.0 0.0 0.00 0.10 0.00 81 1018.3
20260905183000 80 0 0.0 0.0 0.00 0.10 0.00 82 1018.3
20260905182500 79 0 0.0 0.0 0.00 0.10 0.00 82 1018.3
20260905182000 78 0 0.0 0.0 0.00 0.10 0.00 82 1018.3
20260905181501 78 63 1.0 1.0 0.00 0.10 0.00 82 1018.3